Change the Weather History Date:

Saturday, November 9, 2013

  Actual Average Record
Temperature  
Mean Temperature 72 °F -  
Max Temperature 78 °F 75 °F 82 °F (2000)
Min Temperature 64 °F 60 °F 46 °F (2010)
Cooling Degree Days 7    
Growing Degree Days 22 (Base 50)    
Moisture  
Dew Point 63 °F    
Average Humidity 73    
Maximum Humidity 94    
Minimum Humidity 57    
Precipitation  
Precipitation 0.00 in - - ()
Sea Level Pressure  
Sea Level Pressure 30.16 in    
Wind  
Wind Speed 10 mph (ENE)    
Max Wind Speed 13 mph    
Max Gust Speed 18 mph    
Visibility 10 miles    
Events      
Averages and records for this station are not official NWS values.
T = Trace of Precipitation, MM = Missing Value Source: NWS Daily Summary

Daily Weather History Graph

Daily Weather History Graph

Search for Another Location

Airport or City:

Trip Planner

Search our weather history database for the weather conditions in past years. The results will help you decide how hot, cold, wet, or windy it might be!

Date:

Astronomy

Nov. 09, 2013 Rise Set
Actual Time 6:40 AM EST 5:31 PM EST
Civil Twilight 6:16 AM EST 5:56 PM EST
Nautical Twilight 5:47 AM EST 6:24 PM EST
Astronomical Twilight 5:20 AM EST 6:52 PM EST
Moon 12:21 PM EST (11/9) 11:53 PM EST (11/9)
Length of Visible Light 11h 40m
Length of Day
10h 51m
Waxing Crescent, 44% of the Moon is Illuminated
Nov 9
Waxing Crescent
Nov 10
First Quarter
Nov 17
Full
Nov 25
Last Quarter
Dec 2
New

Hourly Weather History & Observations

Time (EST) Temp. Dew Point Humidity Pressure Visibility Wind Dir Wind Speed Gust Speed Precip Events Conditions
12:58 AM 70.5 °F 61.2 °F 72% 30.13 in 10.0 mi ENE 10.4 mph - N/A   Clear
1:58 AM 71.6 °F 62.1 °F 72% 30.13 in 10.0 mi ENE 12.7 mph - N/A   Mostly Cloudy
2:58 AM 70.9 °F 61.5 °F 72% 30.12 in 10.0 mi ENE 11.5 mph - N/A   Partly Cloudy
3:58 AM 71.2 °F 62.1 °F 73% 30.12 in 10.0 mi ENE 10.4 mph - N/A   Scattered Clouds
4:58 AM 71.2 °F 62.2 °F 73% 30.13 in 10.0 mi ENE 10.4 mph - N/A   Clear
5:58 AM 70.7 °F 62.1 °F 74% 30.14 in 10.0 mi East 10.4 mph - N/A   Scattered Clouds
6:58 AM 70.2 °F 61.3 °F 74% 30.15 in 10.0 mi East 9.2 mph - N/A   Clear
7:58 AM 73.0 °F 62.6 °F 70% 30.19 in 10.0 mi East 8.1 mph - N/A   Partly Cloudy
8:58 AM 75.0 °F 61.5 °F 63% 30.21 in 10.0 mi ENE 11.5 mph - N/A   Overcast
9:58 AM 75.9 °F 62.8 °F 64% 30.22 in 10.0 mi ENE 11.5 mph 18.4 mph N/A   Scattered Clouds
10:58 AM 77.5 °F 62.1 °F 59% 30.21 in 10.0 mi ENE 11.5 mph 17.3 mph N/A   Mostly Cloudy
11:58 AM 78.3 °F 62.2 °F 58% 30.19 in 10.0 mi East 12.7 mph 18.4 mph N/A   Clear
12:58 PM 78.4 °F 62.4 °F 58% 30.17 in 10.0 mi ENE 12.7 mph - N/A   Clear
1:58 PM 77.0 °F 62.8 °F 61% 30.16 in 10.0 mi ENE 10.4 mph - N/A   Partly Cloudy
2:58 PM 78.6 °F 62.4 °F 57% 30.15 in 10.0 mi ENE 11.5 mph - N/A   Clear
3:58 PM 77.5 °F 63.1 °F 61% 30.15 in 10.0 mi NE 9.2 mph - N/A   Clear
4:58 PM 75.2 °F 64.0 °F 68% 30.15 in 10.0 mi ENE 6.9 mph - N/A   Clear
5:58 PM 69.6 °F 63.7 °F 81% 30.17 in 10.0 mi NNE 3.5 mph - N/A   Clear
6:58 PM 66.0 °F 63.0 °F 90% 30.18 in 10.0 mi NNE 2.3 mph - N/A   Partly Cloudy
7:58 PM 68.7 °F 63.9 °F 84% 30.18 in 9.0 mi NE 5.8 mph - N/A   Clear
8:58 PM 68.5 °F 64.6 °F 87% 30.18 in 5.0 mi NE 5.8 mph - N/A   Clear
9:58 PM 67.3 °F 64.8 °F 92% 30.17 in 10.0 mi ENE 4.6 mph - N/A   Clear
10:58 PM 66.9 °F 63.9 °F 90% 30.17 in 10.0 mi ENE 5.8 mph - N/A   Clear
11:58 PM 64.9 °F 63.1 °F 94% 30.17 in 10.0 mi NE 3.5 mph - N/A   Clear